Location: Aulagny
(45.1643°N, 4.3096°E)
Time: 00:30:22
(UTC+00:00)

Cosmos 44 - Pass Details

Date: 21 October 2019
Orbit: 592 x 769 km, 65.1° (Epoch: 13 November)

Event Time Altitude Azimuth Distance (km) Brightness Sun altitude
Rises 19:01:59 0° 217° (SW) 3,109 7.0 -24.2°
Reaches altitude 10° 19:04:24 10° 219° (SW) 2,166 6.2 -24.7°
Maximum altitude 19:09:20 78° 306° (NW) 697 3.3 -25.5°
Enters shadow 19:09:45 71° 357° (N) 717 3.3 -25.6°
